星链-6340 (STARLINK-6340 )

导读

STARLINK-6340是美国SpaceX公司星链(Starlink)互联网星座中的一颗卫星,于北京时间2023年7月16日由猎鹰9号火箭在佛罗里达州卡纳维拉尔角太空部队站发射升空,属于最后一批Starlink V1.5版本卫星,部署于近地低轨,旨在为全球提供高速低延迟宽带互联网服务,单颗设计寿命5年以上。

Basic Information
目录编号:
57361
目录名称:
STARLINK-6340
国际标识:
2023-099AK
轨道中心:
EARTH
卫星名称:
星链-6340
卫星全名:
星链-6340 (STARLINK-6340 )
卫星状态:
在轨 (已飞行1153 天)
发射日期:
2023-07-16 UTC
国别 :
美国 (US)
星等 :
--
This satellite is enrolled in the Space Conjunction Data Service (SCDS) and the current flight risk assessment level is: No High Risk
Orbit Information
数据来源 国际轨道数据 AOE轨道数据
星历时间 2026-09-11T17:01:05+0800
11小时前
查看轨道信息
2026-09-07T05:00:00+0800
4天前
查看轨道信息
半长轴 6861.21km 6861.191km
偏心率 0.0001433 0.0001679
轨道倾角 43.004° 43.003°
近地点辐角 292.168° 284.336°
升交点赤经 273.358° 298.779°
平近点角 67.902° 135.720°
近地点 482.089km 481.902km
远地点 484.057km 484.206km
周期 94.267分钟 94.267分钟
每日圈数 15.275723 15.275784
Detailed Information
固有亮度:
5
最大亮度:
2.5
卫星平台:
Starlink v1.5
覆盖范围:
全球
运营商:
太空探索技术公司
运营商所在国:
美国
制造商(研发单位):
太空探索技术公司
制造商所在国:
美国
使用方式:
暂无
Satellite Introduction
星链(Starlink)计划是由太空探索技术公司(SpaceX)提出的一个巨型低轨卫星互联网星座项目,计划在2019年至2024年间在太空搭建由约1.2万颗卫星组成的“星链”网络,其中1584颗将部署在地球上空550千米处的近地轨道,并从2020年开始工作。该卫星仍在工作。
2D Orbit Map
3D Orbit Map
Orbit Altitude Analysis Chart
Orbit Inclination Analysis Chart
Orbit Comprehensive Analysis Chart
View Comprehensive Chart
Miss Distance Evolution Trend with All Objects
Collision Probability Evolution Trend with All Objects